Weather History for Pierre, SD

Change the Weather History Date:

Wednesday, February 13, 2013

  Actual Average Record
Temperature  
Mean Temperature 38 °F 24 °F  
Max Temperature 48 °F 34 °F 68 °F (1983)
Min Temperature 28 °F 13 °F -16 °F (2007)
Degree Days  
Heating Degree Days 27 41  
Month to date heating degree days 471 555  
Since 1 July heating degree days 4803 4915  
Cooling Degree Days 0 0  
Month to date cooling degree days 0 0  
Year to date cooling degree days 0 0  
Moisture  
Dew Point 27 °F    
Average Humidity 65    
Maximum Humidity 76    
Minimum Humidity 53    
Precipitation  
Precipitation 0.00 in 0.02 in 0.45 in (1952)
Month to date precipitation 0.64 0.21  
Year to date precipitation 1.51 0.63  
Snow  
Snow 0.00 in 0.20 in 5.50 in (1952)
Month to date snowfall 6.4 2.2  
Since 1 July snowfall 27.7 18.1  
Snow Depth 2.00 in    
Sea Level Pressure  
Sea Level Pressure 29.77 in    
Wind  
Wind Speed 15 mph (West)    
Max Wind Speed 25 mph    
Max Gust Speed 32 mph    
Visibility 10 miles    
Events      
T = Trace of Precipitation, MM = Missing Value Source: NWS Daily Summary

Daily Weather History Graph

Daily Weather History Graph

Search for Another Location

Airport:

Trip Planner

Search our weather history database for the weather conditions in past years. The results will help you decide how hot, cold, wet, or windy it might be!

Date:

Astronomy

Feb. 13, 2013 Rise Set
Actual Time 7:43 AM CST 6:07 PM CST
Civil Twilight 7:13 AM CST 6:37 PM CST
Nautical Twilight 6:39 AM CST 7:11 PM CST
Astronomical Twilight 6:05 AM CST 7:45 PM CST
Moon 9:03 AM CST (2/13) 10:24 PM CST (2/13)
Length of Visible Light 11h 24m
Length of Day
10h 24m
Waxing Crescent, 14% of the Moon is Illuminated
Feb 13
Waxing Crescent
Feb 17
First Quarter
Feb 25
Full
Mar 4
Last Quarter
Mar 11
New

Hourly Weather History & Observations

Time (CST) Temp. Windchill Dew Point Humidity Pressure Visibility Wind Dir Wind Speed Gust Speed Precip Events Conditions
12:53 AM 33.1 °F 25.5 °F 25.0 °F 72% 29.88 in 10.0 mi West 9.2 mph - N/A   Clear
1:53 AM 33.1 °F 25.5 °F 25.0 °F 72% 29.86 in 10.0 mi WSW 9.2 mph - N/A   Mostly Cloudy
2:53 AM 32.0 °F 24.2 °F 24.1 °F 73% 29.85 in 10.0 mi WSW 9.2 mph - N/A   Scattered Clouds
3:53 AM 33.1 °F 25.5 °F 24.1 °F 70% 29.82 in 10.0 mi West 9.2 mph - N/A   Overcast
4:53 AM 30.9 °F 22.8 °F 23.0 °F 72% 29.81 in 10.0 mi WSW 9.2 mph - N/A   Overcast
5:53 AM 28.9 °F 20.4 °F 21.9 °F 75% 29.81 in 10.0 mi WSW 9.2 mph - N/A   Clear
6:53 AM 28.0 °F 19.3 °F 21.9 °F 78% 29.79 in 10.0 mi WSW 9.2 mph - N/A   Clear
7:53 AM 30.0 °F 21.1 °F 23.0 °F 75% 29.77 in 10.0 mi WSW 10.4 mph - N/A   Overcast
8:53 AM 30.9 °F 21.2 °F 23.0 °F 72% 29.77 in 10.0 mi WSW 12.7 mph - N/A   Mostly Cloudy
9:53 AM 33.1 °F 24.4 °F 24.1 °F 70% 29.73 in 10.0 mi WSW 11.5 mph - N/A   Overcast
10:53 AM 37.9 °F 28.9 °F 26.1 °F 62% 29.71 in 10.0 mi West 16.1 mph - N/A   Scattered Clouds
11:53 AM 43.0 °F 34.5 °F 28.0 °F 56% 29.68 in 10.0 mi West 19.6 mph - N/A   Partly Cloudy
12:53 PM 44.1 °F 36.5 °F 28.9 °F 55% 29.67 in 10.0 mi West 17.3 mph 25.3 mph N/A   Mostly Cloudy
1:53 PM 46.0 °F 38.3 °F 32.0 °F 58% 29.66 in 10.0 mi WNW 20.7 mph - N/A   Partly Cloudy
2:53 PM 46.9 °F - 33.1 °F 59% 29.65 in 10.0 mi WNW 19.6 mph - N/A   Mostly Cloudy
3:53 PM 46.0 °F 37.8 °F 30.9 °F 56% 29.67 in 10.0 mi NW 23.0 mph 27.6 mph N/A   Mostly Cloudy
4:53 PM 44.1 °F 35.7 °F 30.0 °F 58% 29.69 in 10.0 mi NW 20.7 mph - N/A   Clear
5:53 PM 41.0 °F 34.3 °F 30.9 °F 67% 29.72 in 10.0 mi West 11.5 mph - N/A   Mostly Cloudy
6:53 PM 37.9 °F 29.6 °F 30.0 °F 73% 29.76 in 10.0 mi WNW 13.8 mph - N/A   Clear
7:53 PM 39.0 °F 29.3 °F 28.9 °F 67% 29.78 in 10.0 mi WNW 19.6 mph - N/A   Clear
8:53 PM 37.9 °F 27.1 °F 28.9 °F 70% 29.81 in 10.0 mi NW 23.0 mph 28.8 mph N/A   Mostly Cloudy
9:53 PM 37.0 °F 27.7 °F 30.0 °F 76% 29.83 in 10.0 mi NW 16.1 mph - N/A   Overcast
10:53 PM 37.0 °F 27.0 °F 28.9 °F 73% 29.84 in 10.0 mi WNW 18.4 mph - N/A   Overcast
11:53 PM 36.0 °F 25.3 °F 28.9 °F 76% 29.85 in 10.0 mi NW 19.6 mph 27.6 mph N/A   Partly Cloudy